Regional Weather Roundup
Issued by NWS Charleston, WV

Home | Current Version | Previous Version | Text Only | Print | Product List | Glossary Off
Versions: 1 2 3 4 5 6 7 8 9 10 11 12 13 14 15 16 17 18 19 20 21 22 23 24 25 26 27 28 29 30 31 32 33 34 35 36 37 38 39 40 41 42 43 44 45 46 47 48

000
ASUS41 KRLX 251510
RWRRLX
West Virginia Regional Weather Roundup
National Weather Service Charleston WV
1000 AM EST THU DEC 25 2014

Note: "fair" indicates few or no clouds below 12,000 feet with no
significant weather and/or obstructions to visibility.

WVZ003-251600-
Northern Panhandle of West Virginia

CITY           SKY/WX    TMP DP  RH WIND       PRES   REMARKS
WHEELING       CLOUDY    37  33  85 W14       29.98R
$$

WVZ009-251600-
Northwest West Virginia

CITY           SKY/WX    TMP DP  RH WIND       PRES   REMARKS
PARKERSBURG    CLOUDY    40  31  70 W13G28    30.08R
$$

WVZ006-251600-
Western West Virginia

CITY           SKY/WX    TMP DP  RH WIND       PRES   REMARKS
HUNTINGTON     CLOUDY    39  32  76 W7        30.10R
$$

WVZ015-251600-
West Central West Virginia

CITY           SKY/WX    TMP DP  RH WIND       PRES   REMARKS
CHARLESTON     CLOUDY    41  34  76 W7        30.09R
$$

WVZ022-031-251600-
North Central West Virginia

CITY           SKY/WX    TMP DP  RH WIND       PRES   REMARKS
CLARKSBURG     LGT RAIN  40  33  76 W14       30.00R
MORGANTOWN     CLOUDY    40  31  70 VRB6G23   29.98R
$$

WVZ025-035-042-045-251600-
Southern West Virginia

CITY           SKY/WX    TMP DP  RH WIND       PRES   REMARKS
BECKLEY        LGT RAIN  36  30  79 W12G21    30.04R
LOGAN          CLOUDY    39  34  81 W7G15     30.09R
BLUEFIELD      CLOUDY    37  28  70 W10G24    30.05R
LEWISBURG      CLOUDY    40  31  70 W8G16     30.01R
$$

WVZ047-251600-
Northern Mountains of West Virginia

CITY           SKY/WX    TMP DP  RH WIND       PRES   REMARKS
ELKINS         CLOUDY    38  32  79 VRB7      29.98R
$$

WVZ052-251600-
Eastern Panhandle of West Virginia

CITY           SKY/WX    TMP DP  RH WIND       PRES   REMARKS
MARTINSBURG    CLOUDY    49  30  48 W10G17    29.91R
PETERSBURG     CLOUDY    46  28  49 W14       29.94R
$$



USA.gov is the U.S. government's official web portal to all federal, state and local government web resources and services.